Flag for Canada Weather past 2 weeks in Camrose, Alberta, Canada

Now
43 °F

Passing clouds.


Feels Like: 40 °F
Forecast: 42 / 55 °F
Wind: 5 mph from Northeast

Location: Edmonton International

Current Time: Sep 5, 2015 at 6:33:57 AM

Latest Report: Sep 5, 2015 at 6:00 AM


Visibility: 15 mi

Pressure: 30.22 "Hg (27.59 "Hg at 744m altitude)

Humidity: 100%

Dew point: 43 °F

Location of CamroseLocation

Historic Weather in Camrose — Graph

°F

Camrose temperature yesterday

Maximum temperature yesterday: 50 °F (at 4:00 PM)
Minimum temperature yesterday: 43 °F (at 6:00 AM)
Average temperature yesterday: 45 °F

Past Weeks' High & Low Weather Summary

 TemperatureHumidityPressure
High81 °F (Aug 28, 4:00 PM)100% (Aug 21, 5:00 AM)30.26 "Hg (Aug 21, 5:00 AM)
Low30 °F (Sep 3, 5:00 AM)27% (Aug 30, 1:00 PM)29.42 "Hg (Aug 29, 8:00 PM)
Average55 °F71%29.88 "Hg
* Reported Aug 21 5:00 AM — Sep 5 5:00 AM, Camrose, Weather by CustomWeather, © 2015

Note: Actual official high and low records may vary slightly from our data, if they occured in-between our weather recording intervals... More about our weather records

Advertising

Camrose weather history for previous 24 hours

 ConditionsComfort  
Time TempWeatherWind HumidityBarometerVisibility
5:00 AM
Sat, Sep 5
45 °FOvercast.2 mph93%30.22 "Hg15 mi
4:00 AM45 °FMostly cloudy.No wind93%30.22 "Hg15 mi
3:00 AM45 °FOvercast.No wind93%30.23 "Hg15 mi
2:56 AM45 °FOvercast.No wind93%30.23 "Hg15 mi
2:00 AM43 °FLight rain. Overcast.2 mph93%30.24 "Hg15 mi
1:00 AM43 °FOvercast.No wind93%30.25 "Hg15 mi
12:00 AM43 °FOvercast.No wind93%30.25 "Hg15 mi
11:00 PM
Fri, Sep 4
45 °FPassing clouds.3 mph87%30.25 "Hg15 mi
10:00 PM43 °FPartly cloudy.3 mph93%30.26 "Hg15 mi
9:00 PM45 °FPartly sunny.3 mph81%30.25 "Hg15 mi
8:00 PM48 °FBroken clouds.2 mph76%30.25 "Hg15 mi
7:00 PM48 °FBroken clouds.2 mph76%30.24 "Hg15 mi
6:00 PM48 °FMore clouds than sun.3 mph76%30.24 "Hg15 mi
5:00 PM50 °FOvercast.6 mph71%30.24 "Hg15 mi
4:00 PM50 °FPartly sunny.6 mph71%30.24 "Hg15 mi
3:00 PM46 °FMostly cloudy.8 mph82%30.25 "Hg15 mi
2:00 PM48 °FMostly cloudy.7 mph76%30.24 "Hg15 mi
1:00 PM46 °FMostly cloudy.8 mph82%30.24 "Hg15 mi
12:00 PM45 °FMore clouds than sun.7 mph87%30.24 "Hg15 mi
11:00 AM43 °FMore clouds than sun.8 mph93%30.23 "Hg15 mi
10:00 AM43 °FLight rain. Cloudy.10 mph93%30.23 "Hg10 mi
9:00 AM43 °FLight rain. Fog.8 mph93%30.22 "Hg5 mi
8:00 AM43 °FLight rain. Fog.5 mph93%30.20 "Hg5 mi
7:00 AM43 °FLight rain. Mostly cloudy.5 mph93%30.18 "Hg15 mi
6:00 AM43 °FLight rain. Overcast.3 mph87%30.16 "Hg15 mi
Weather by CustomWeather, © 2015

See weather overviewHow to use our weather pages